[[{"header":{"parameterUnit":"m.s-1","parameterCategory":1,"la1":30.2991,"la2":30.254,"lo1":-89.0895,"lo2":-89.0444,"dy":0.0017,"dx":0.0017,"nx":28,"ny":28,"refTime":"2025-04-03T03:00:00:Z","depth":0,"parameterNumber":2,"parameterNumberName":"U-component_of_WINDS"},"data":[0,0,0,0,0,0,0,0,0,0,0,0,0,0,0,0,0,0,0,0,0,0,0,0,0,0,0,0,0,0,0,0,0,0,0,0,0,0,0,0,0,0,0,0,0,0,0,0,0,0,0,0,0,0,0,0,0,0,-3.8883,-3.8885,0,-3.9108,-3.911,-3.9113,-3.9198,-3.9198,-3.9197,-3.9196,-3.9428,-3.9435,-3.9442,0,0,0,0,0,0,0,0,0,0,0,0,0,-3.8528,-3.8534,-3.8882,-3.8885,-3.8888,-3.9107,-3.9111,-3.9114,-3.9198,-3.9198,-3.9197,-3.9196,-3.9426,-3.9434,-3.9442,0,0,0,0,0,0,0,0,0,0,0,0,0,-3.871,-3.8536,-3.8882,-3.8957,-3.8966,-3.9107,-3.9111,-3.9114,-3.9199,-3.9198,-3.9196,-3.9196,-3.9423,-3.9433,-3.9443,-3.9527,0,0,-3.9474,-3.9479,0,0,0,0,0,0,0,0,-3.87,-3.8723,-3.8943,-3.8952,-3.8962,-3.9124,-3.9071,-3.9253,-3.9199,-3.911,-3.9196,-3.9195,-3.9328,-3.9346,-3.939,-3.9538,-3.9548,-3.9475,-3.9482,-3.9486,-3.9489,0,0,0,0,0,0,0,-3.8687,-3.8714,-3.8972,-3.8946,-3.8958,-3.898,-3.9005,-3.9106,-3.9222,-3.9118,-3.9125,-3.915,-3.9333,-3.938,-3.9396,-3.9551,-3.9475,-3.9484,-3.949,-3.9494,-3.978,-3.9781,0,0,0,0,0,0,-3.8662,-3.8703,-3.8964,-3.8978,-3.8826,-3.8987,-3.9015,-3.9073,-3.9221,-3.9243,-3.9151,-3.9153,-3.9363,-3.9384,-3.9405,-3.9513,-3.9486,-3.9495,-3.9501,-3.9778,-3.978,-3.9782,0,0,0,0,0,0,-3.8654,-3.8684,-3.8955,-3.8843,-3.8879,-3.8994,-3.9059,-3.9078,-3.9125,-3.9246,-3.9267,-3.9177,-3.9363,-3.9391,-3.9496,-3.9522,-3.95,-3.9509,-3.9777,-3.9779,-3.9781,-3.9729,0,0,0,0,0,0,-3.8643,-3.8681,-3.8713,-3.8843,-3.8885,-3.9042,-3.9061,-3.9083,-3.9143,-3.9148,-3.9277,-3.9297,-3.9365,-3.948,-3.9506,-3.9536,-3.9517,-3.9775,-3.9778,-3.978,-3.9729,-3.9729,-3.9729,0,0,0,0,0,-3.863,-3.869,-3.8714,-3.8745,-3.8927,-3.9043,-3.9067,-3.9143,-3.9144,-3.9178,-3.9256,-3.9293,-3.9515,-3.949,-3.952,-3.9553,-3.9774,-3.9777,-3.978,-3.9729,-3.9729,-3.9729,0,0,0,0,0,0,-3.856,-3.8708,-3.8737,-3.884,-3.8928,-3.9057,-3.9102,-3.9141,-3.9231,-3.9232,-3.9324,-3.9352,-3.945,-3.9513,-3.9482,-3.9643,-3.9647,-3.9656,-3.9598,-3.9599,-3.9599,-3.9582,-3.9526,0,0,0,0,0,-3.8557,-3.8638,-3.8763,-3.8841,-3.8884,-3.8985,-3.9039,-3.909,-3.9185,-3.9223,-3.9309,-3.94,-3.9491,-3.9549,-3.9639,-3.9739,-3.9768,-3.9777,-3.9777,-3.9776,-3.9783,-3.9841,-3.9846,-3.9792,-3.9792,-3.9792,0,0,-3.855,-3.8641,-3.8686,-3.883,-3.8904,-3.8987,-3.9016,-3.9102,-3.9165,-3.9237,-3.9341,-3.9407,-3.9516,-3.9619,-3.9669,-3.9674,-3.9805,-3.978,-3.9779,-3.9786,-3.9845,-3.985,-3.9854,-3.9795,-3.9794,-3.9794,0,0,-3.858,-3.8657,-3.8731,-3.8805,-3.8918,-3.8985,-3.9003,-3.9127,-3.9173,-3.928,-3.9335,-3.9412,-3.9566,-3.9641,-3.97,-3.976,-3.9798,-3.9787,-3.9787,-3.9843,-3.9847,-3.9851,-3.9873,-3.9879,-3.9794,-3.9793,-3.9793,0,-3.8557,-3.8684,-3.8764,-3.8847,-3.8909,-3.8978,-3.9054,-3.9123,-3.9259,-3.9301,-3.9305,-3.9501,-3.9579,-3.97,-3.9715,-3.976,-3.9784,-3.9772,-3.984,-3.9845,-3.985,-3.9871,-3.9879,-3.9791,-3.9792,-3.9792,-3.9792,0,-3.865,-3.8737,-3.8784,-3.8913,-3.8981,-3.906,-3.9153,-3.9212,-3.9258,-3.9324,-3.9433,-3.9529,-3.964,-3.9673,-3.9719,-3.9802,-3.9802,-3.9822,-3.9828,-3.9852,-3.9873,-3.9882,-3.9788,-3.9789,-3.979,-3.979,0,0,-3.8641,-3.8815,-3.883,-3.889,-3.902,-3.9089,-3.9173,-3.9281,-3.9329,-3.9422,-3.9494,-3.9624,-3.9644,-3.971,-3.9765,-3.9814,-3.9856,-3.9829,-3.9832,-3.9829,-3.9953,-3.9936,-3.9944,-3.9882,-3.9884,-3.9886,-3.9944,0,-3.8687,-3.8838,-3.8913,-3.9031,-3.9113,-3.9181,-3.9254,-3.9342,-3.9407,-3.9486,-3.9559,-3.9649,-3.9669,-3.9709,-3.9761,-3.9839,-3.9881,-3.9836,-3.995,-3.9953,-3.9919,-3.9956,-3.9938,-3.9989,-3.9953,-3.9954,-3.9956,0,-3.8761,-3.8852,-3.8978,-3.91,-3.9137,-3.92,-3.9306,-3.9381,-3.9483,-3.9528,-3.9602,-3.9656,-3.9748,-3.9748,-3.9875,-3.9843,-3.9895,-3.9941,-3.9944,-3.9957,-3.9954,-3.9968,-4.0007,-4.0013,-3.997,-3.9969,-3.9968,0,-3.874,-3.8895,-3.8991,-3.904,-3.9184,-3.9227,-3.929,-3.9391,-3.9451,-3.9545,-3.9585,-3.9688,-3.9744,-3.9823,-3.9903,-3.9896,-4.0023,-4.003,-4.0062,-4.006,-4.0084,-4.0081,-4.013,-4.0119,-4.0119,-4.0119,-4.0119,0,-3.8784,-3.8858,-3.8983,-3.9042,-3.9127,-3.9215,-3.9297,-3.9365,-3.9455,-3.9528,-3.9594,-3.9662,-3.9765,-3.9847,-3.9911,-4.0006,-4.0032,-4.007,-4.0086,-4.0064,-4.0058,-4.0097,-4.0096,-4.0121,-4.0121,-4.012,-4.012,0,-3.8774,-3.8861,-3.897,-3.9098,-3.9132,-3.9189,-3.9299,-3.9359,-3.9428,-3.9521,-3.9548,-3.9656,-3.9756,-3.9845,-3.9976,-4.002,-4.0117,-4.0137,-4.0082,-4.009,-4.0117,-4.0113,-4.0191,-4.0206,-4.0185,-4.0185,-4.0185,0,-3.8795,-3.8854,-3.8988,-3.9042,-3.9103,-3.9189,-3.9251,-3.934,-3.9403,-3.9524,-3.9569,-3.9673,-3.9761,-3.9916,-4.0008,-4.0109,-4.0132,-4.0153,-4.0148,-4.0123,-4.0132,-4.0127,-4.0133,-4.0151,-4.0151,-4.0151,-4.0151,0,-3.8824,-3.8864,-3.8951,-3.9053,-3.9126,-3.9211,-3.9298,-3.9338,-3.9444,-3.9511,-3.9613,-3.9681,-3.9816,-3.9918,-4.003,-4.0095,-4.0141,-4.0152,-4.0165,-4.0142,-4.0107,-4.0126,-4.0079,-4.0149,-4.015,-4.015,-4.015,-4.015,-3.8831,-3.8886,-3.8989,-3.9084,-3.9159,-3.9239,-3.9302,-3.9379,-3.9465,-3.9581,-3.9629,-3.9732,-3.9835,-3.999,-4.0055,-4.0138,-4.0147,-4.0165,-4.017,-4.0173,-4.0168,-4.0094,-4.0159,-4.0159,-4.0159,-4.0159,-4.016,0,-3.8862,-3.8932,-3.9018,-3.9138,-3.9213,-3.9249,-3.9348,-3.9408,-3.9498,-3.959,-3.9675,-3.9792,-3.9892,-3.9992,-4.0098,-4.0145,-4.0169,-4.017,-4.0167,-4.0181,-4.0155,-4.0133,-4.0149,-4.0149,-4.0149,-4.0149,-4.0149,-4.0149,-3.8887,-3.8982,-3.9035,-3.9169,-3.9239,-3.934,-3.9394,-3.9468,-3.9542,-3.967,-3.9753,-3.9817,-3.9913,-4.0026,-4.012,-4.0147,-4.0182,-4.0178,-4.021,-4.0183,-4.0183,-4.0183,-4.0162,-4.0185,-4.0185,-4.023,-4.023,-4.023]},{"header":{"parameterUnit":"m.s-1","parameterCategory":1,"la1":30.2991,"la2":30.254,"lo1":-89.0895,"lo2":-89.0444,"dy":0.0017,"dx":0.0017,"nx":28,"ny":28,"refTime":"2025-04-03T03:00:00:Z","depth":0,"parameterNumber":3,"parameterNumberName":"V-component_of_WINDS"},"data":[0,0,0,0,0,0,0,0,0,0,0,0,0,0,0,0,0,0,0,0,0,0,0,0,0,0,0,0,0,0,0,0,0,0,0,0,0,0,0,0,0,0,0,0,0,0,0,0,0,0,0,0,0,0,0,0,0,0,3.7637,3.7638,0,3.7733,3.7734,3.7735,3.7793,3.7793,3.7793,3.7794,3.7893,3.7895,3.7897,0,0,0,0,0,0,0,0,0,0,0,0,0,3.751,3.7512,3.7637,3.7638,3.7639,3.7733,3.7734,3.7735,3.7793,3.7793,3.7793,3.7794,3.7892,3.7895,3.7897,0,0,0,0,0,0,0,0,0,0,0,0,0,3.7581,3.7512,3.7637,3.7679,3.7684,3.7732,3.7734,3.7736,3.7793,3.7793,3.7794,3.7794,3.7891,3.7894,3.7898,3.7911,0,0,3.7909,3.791,0,0,0,0,0,0,0,0,3.7577,3.7586,3.7672,3.7677,3.7682,3.7751,3.7725,3.7794,3.7793,3.7752,3.7794,3.7794,3.7845,3.7853,3.787,3.7916,3.792,3.7909,3.7911,3.7913,3.7914,0,0,0,0,0,0,0,3.7572,3.7582,3.7675,3.7673,3.7679,3.7695,3.7706,3.7739,3.7795,3.7755,3.776,3.777,3.7848,3.7866,3.7872,3.7922,3.7909,3.7912,3.7914,3.7916,3.799,3.799,0,0,0,0,0,0,3.756,3.7577,3.7672,3.7678,3.7629,3.7697,3.7709,3.7729,3.7795,3.7805,3.777,3.7772,3.786,3.7868,3.7876,3.79,3.7913,3.7916,3.7918,3.799,3.799,3.7989,0,0,0,0,0,0,3.7557,3.7567,3.7668,3.7629,3.7643,3.7699,3.772,3.773,3.7748,3.7806,3.7816,3.7777,3.786,3.7871,3.7903,3.7904,3.7918,3.7921,3.799,3.799,3.799,3.7944,0,0,0,0,0,0,3.7553,3.7566,3.757,3.7628,3.7645,3.7692,3.772,3.7732,3.7754,3.7759,3.7816,3.7825,3.7862,3.7898,3.7907,3.7909,3.7924,3.799,3.799,3.799,3.7946,3.7943,3.794,0,0,0,0,0,3.7548,3.7553,3.757,3.7581,3.7651,3.7692,3.7701,3.7742,3.7754,3.776,3.7798,3.7824,3.7902,3.79,3.7911,3.7914,3.799,3.799,3.799,3.7947,3.7943,3.794,0,0,0,0,0,0,3.7492,3.7561,3.7581,3.7604,3.7642,3.7701,3.771,3.7736,3.7771,3.7774,3.7824,3.7836,3.7865,3.7893,3.789,3.7934,3.795,3.7951,3.7914,3.791,3.7907,3.79,3.7927,0,0,0,0,0,3.7483,3.7509,3.7568,3.7584,3.7601,3.7652,3.7672,3.7701,3.7741,3.7758,3.7797,3.7837,3.7871,3.7892,3.7926,3.7951,3.7966,3.7959,3.7956,3.7953,3.7954,3.7973,3.7972,3.7988,3.7988,3.7988,0,0,3.7463,3.7504,3.7517,3.7574,3.7606,3.7634,3.7665,3.7692,3.7715,3.7762,3.7795,3.7826,3.7874,3.7904,3.7919,3.7928,3.7953,3.7952,3.7949,3.7952,3.7972,3.7971,3.7969,3.7988,3.7988,3.7988,0,0,3.7442,3.7475,3.7493,3.7526,3.7575,3.761,3.7614,3.7671,3.7694,3.7728,3.7766,3.7794,3.785,3.7884,3.7909,3.7906,3.7933,3.7916,3.7899,3.7917,3.7916,3.7915,3.7917,3.7917,3.7917,3.7917,3.7917,0,3.7412,3.7454,3.7499,3.7526,3.7551,3.7596,3.7617,3.7647,3.7704,3.7722,3.7732,3.7807,3.7842,3.7882,3.7882,3.79,3.7909,3.7909,3.7913,3.7912,3.7912,3.7915,3.7915,3.7915,3.7915,3.7915,3.7915,0,3.7417,3.7446,3.7455,3.7511,3.7537,3.756,3.7611,3.7632,3.766,3.7695,3.7732,3.7777,3.7823,3.7834,3.7861,3.788,3.7885,3.7903,3.792,3.7908,3.7911,3.7912,3.7911,3.7912,3.7913,3.7913,0,0,3.736,3.7444,3.7446,3.7474,3.7534,3.7559,3.7586,3.7632,3.7651,3.769,3.7716,3.7766,3.7785,3.7813,3.7844,3.786,3.786,3.7878,3.788,3.7875,3.7888,3.7874,3.7874,3.7878,3.7879,3.7879,3.7884,0,3.735,3.7399,3.7443,3.7477,3.7508,3.7554,3.7578,3.7619,3.7653,3.7685,3.7723,3.7758,3.7779,3.7797,3.7815,3.7856,3.7863,3.7856,3.7905,3.7906,3.7892,3.7875,3.786,3.7863,3.7886,3.7886,3.7886,0,3.7343,3.7382,3.742,3.7481,3.7496,3.7516,3.7564,3.7593,3.7642,3.7666,3.77,3.7734,3.7768,3.7783,3.7832,3.7826,3.785,3.7873,3.7875,3.7881,3.7895,3.7883,3.7864,3.7865,3.7888,3.7888,3.7888,0,3.7301,3.7363,3.7395,3.7418,3.7489,3.7503,3.7534,3.7583,3.7609,3.7652,3.767,3.7716,3.7741,3.7777,3.7824,3.7829,3.787,3.7887,3.7893,3.7892,3.7899,3.7898,3.7885,3.7912,3.7912,3.7912,3.7912,0,3.7285,3.7307,3.7378,3.7398,3.7425,3.7476,3.7503,3.7538,3.7582,3.7612,3.7655,3.7681,3.7741,3.7776,3.7813,3.7851,3.7861,3.7884,3.7893,3.788,3.7878,3.7896,3.7898,3.7912,3.7912,3.7912,3.7912,0,3.7242,3.729,3.7329,3.7395,3.7412,3.7429,3.7487,3.7509,3.7548,3.7584,3.7596,3.7656,3.77,3.7751,3.7811,3.7836,3.7872,3.7885,3.7855,3.7861,3.7865,3.7864,3.7864,3.7868,3.789,3.789,3.789,0,3.7229,3.7247,3.7316,3.7339,3.7369,3.7404,3.7432,3.7485,3.7512,3.7572,3.7588,3.7636,3.7676,3.7745,3.7796,3.7843,3.7859,3.7856,3.7866,3.7854,3.7862,3.7861,3.7864,3.7853,3.7852,3.7852,3.7851,0,3.7202,3.7226,3.7263,3.7311,3.7343,3.7383,3.7425,3.7442,3.7503,3.7533,3.7579,3.761,3.7674,3.7722,3.7776,3.7811,3.7843,3.7848,3.7853,3.784,3.7822,3.7834,3.7849,3.7848,3.7848,3.7848,3.7849,3.7849,3.7175,3.7195,3.7247,3.729,3.7327,3.7366,3.7392,3.7434,3.7473,3.7529,3.7558,3.7605,3.7658,3.7735,3.7769,3.7808,3.7818,3.7823,3.7825,3.7826,3.7824,3.7816,3.7818,3.7818,3.7818,3.7818,3.7818,0,3.7152,3.7189,3.7227,3.7285,3.7319,3.7346,3.7396,3.7423,3.7463,3.751,3.755,3.7605,3.7653,3.7709,3.7761,3.7782,3.7798,3.7794,3.7793,3.7801,3.781,3.7802,3.778,3.778,3.778,3.778,3.778,3.778,3.7143,3.718,3.7211,3.7268,3.7306,3.7351,3.7378,3.7415,3.7454,3.7513,3.7553,3.7589,3.7641,3.7698,3.7745,3.776,3.7779,3.777,3.779,3.7797,3.78,3.7803,3.7796,3.7773,3.7773,3.7779,3.7779,3.7779]}]]